(804) Hispania
ephemeris date magn radius delta ra dec elong phase
Opposition7 Jun 202611.92.681 AU1.724 AU16h47m-46°57'155.6°9.0°
Today27 Jul 202612.42.614 AU1.916 AU16h14m-42°25'123.2°19.0°
(804) Hispania - 2026-07-27
astro.vanbuitenen.nl


 
-1 year
-1 month
-1 day
Now
+1 day
+1 month
+1 year

The interactive orbit chart above shows the body's path through the solar system and its position at the given date. Green and blue lines are shown perpendicular to the ecliptic plane: Green if the path is above the ecliptic plane, blue if it is below. (Left-click and drag to rotate the view; Right-click and drag to move the view; Use scroll wheel to zoom in our out.)

The orbital elements of Hispania are:

            e (Eccentricity)                : 0.1415579
            a (Semimajor axis)              : 2.8376031
            i (Inclination)                 : 15.38610
            Ω (Longitude of ascending node) : 347.53685
            ω (Argument of perihelion)      : 343.76984
            M (Mean anomaly)                : 300.69557
            Epoch                           : 2026 Jun 09

            L (Longitude of perihelion)     : 331.85929
            B (Latitude of perihelion)      : -4.25277
            P (Orbital period in years)     : 4.78            
        

The light curve chart below shows the estimated development of the minor planet's magnitude.


The all-sky chart below shows the path of the minor planet over the same period as the light curve. The current position is marked yellow.





The following chart shows the path of the minor planet in the next few days. The field of view is optimized for (~10x50) binoculars and finderscopes.




Ephemerides:
Date       Time       RA (2000)    DEC (2000)    delta   radius  elong  phase   PA    magn
2026-07-27 00:00 UT   16 14 30.9   -42 25 03     1.916    2.614  123.2   19.0    86   12.4 
2026-07-27 18:19 UT   16 14 38.5   -42 19 37     1.923    2.613  122.5   19.1    87   12.5 
2026-07-28 00:00 UT   16 14 41.1   -42 17 56     1.925    2.613  122.3   19.2    87   12.5 
2026-07-29 00:00 UT   16 14 53.3   -42 10 53     1.933    2.611  121.5   19.4    88   12.5 
2026-07-30 00:00 UT   16 15 07.6   -42 03 51     1.942    2.610  120.7   19.5    88   12.5 
2026-07-31 00:00 UT   16 15 23.9   -41 56 52     1.950    2.609  119.9   19.7    88   12.5 
2026-08-01 00:00 UT   16 15 42.1   -41 49 57     1.959    2.607  119.0   19.9    89   12.5 
2026-08-02 00:00 UT   16 16 02.4   -41 43 04     1.968    2.606  118.2   20.1    89   12.5 
2026-08-03 00:00 UT   16 16 24.6   -41 36 15     1.977    2.605  117.4   20.2    90   12.5 
2026-08-04 00:00 UT   16 16 48.7   -41 29 28     1.986    2.603  116.6   20.4    90   12.6 
2026-08-05 00:00 UT   16 17 14.7   -41 22 45     1.995    2.602  115.8   20.5    91   12.6 
2026-08-06 00:00 UT   16 17 42.6   -41 16 06     2.004    2.601  115.0   20.7    91   12.6 
2026-08-07 00:00 UT   16 18 12.3   -41 09 30     2.014    2.600  114.2   20.8    91   12.6 
2026-08-08 00:00 UT   16 18 43.9   -41 02 59     2.023    2.598  113.4   21.0    92   12.6 
2026-08-09 00:00 UT   16 19 17.4   -40 56 30     2.033    2.597  112.6   21.1    92   12.6 
2026-08-10 00:00 UT   16 19 52.6   -40 50 06     2.043    2.596  111.8   21.3    92   12.6 
2026-08-11 00:00 UT   16 20 29.6   -40 43 46     2.052    2.595  111.0   21.4    93   12.7 
2026-08-12 00:00 UT   16 21 08.4   -40 37 29     2.062    2.593  110.2   21.5    93   12.7 
2026-08-13 00:00 UT   16 21 48.9   -40 31 17     2.072    2.592  109.5   21.6    93   12.7 
2026-08-14 00:00 UT   16 22 31.2   -40 25 08     2.082    2.591  108.7   21.7    93   12.7 
2026-08-15 00:00 UT   16 23 15.1   -40 19 04     2.092    2.590  107.9   21.8    94   12.7 
2026-08-16 00:00 UT   16 24 00.7   -40 13 04     2.102    2.588  107.1   22.0    94   12.7 
2026-08-17 00:00 UT   16 24 48.0   -40 07 07     2.112    2.587  106.4   22.1    94   12.7 
2026-08-18 00:00 UT   16 25 36.9   -40 01 15     2.122    2.586  105.6   22.1    94   12.7 
2026-08-19 00:00 UT   16 26 27.3   -39 55 27     2.133    2.585  104.9   22.2    95   12.8 
2026-08-20 00:00 UT   16 27 19.3   -39 49 43     2.143    2.583  104.1   22.3    95   12.8 
2026-08-21 00:00 UT   16 28 12.9   -39 44 03     2.153    2.582  103.4   22.4    95   12.8 
2026-08-22 00:00 UT   16 29 08.0   -39 38 27     2.164    2.581  102.6   22.5    95   12.8 
2026-08-23 00:00 UT   16 30 04.6   -39 32 54     2.174    2.580  101.9   22.6    95   12.8 
2026-08-24 00:00 UT   16 31 02.6   -39 27 26     2.185    2.579  101.1   22.6    96   12.8 
2026-08-25 00:00 UT   16 32 02.1   -39 22 01     2.195    2.577  100.4   22.7    96   12.8 
2026-08-26 00:00 UT   16 33 03.0   -39 16 40     2.206    2.576   99.7   22.8    96   12.8 


    Terminology:
            
    delta:  distance between minor planet and earth in AU
    radius: distance between minor planet and sun in AU
    magn:   magnitude (brightness) estimate    
    ra:     right ascension in hours (24h = 360deg)
    dec:    declination in degrees
    elong:  elongation in degrees (angle sun-earth-minor planet)    
    phase:  phase angle in degrees (angle sun-minor planet-earth)        
    AU:     Astronomical Unit (mean distance between earth and sun: 149597870.7 km
    

Orbital elements provided by the MPC (Minor Planet Center).
Calculations by a modified version of AAPlus, a C# implementation of the AA+ project by PJ Naughter from the algorithms presented in the book "Astronomical Algorithms" by Jean Meeus.
NGC2000 dso catalog and star labels from VizieR as provided by the Strasbourg astronomical Data Center.
Tycho2 catalog from the ESO archive.